Weather History for KLVN - November, 2012

Change the Weather History Date:

Tuesday, November 6, 2012

  Actual Average Record
Temperature  
Mean Temperature 40 °F -  
Max Temperature 42 °F 45 °F 71 °F (2004)
Min Temperature 37 °F 27 °F 4 °F (1951)
Degree Days  
Heating Degree Days 26    
Moisture  
Dew Point 36 °F    
Average Humidity 89    
Maximum Humidity 100    
Minimum Humidity 76    
Precipitation  
Precipitation 0.15 in - - ()
Sea Level Pressure  
Sea Level Pressure 29.84 in    
Wind  
Wind Speed 11 mph (West)    
Max Wind Speed 21 mph    
Max Gust Speed 26 mph    
Visibility 8 miles    
Events Rain    
Averages and records for this station are not official NWS values.
T = Trace of Precipitation, MM = Missing Value Source: NWS Daily Summary

Daily Weather History Graph

Daily Weather History Graph

Search for Another Location

Airport or City:

Trip Planner

Search our weather history database for the weather conditions in past years. The results will help you decide how hot, cold, wet, or windy it might be!

Date:

Astronomy

Nov. 06, 2012 Rise Set
Actual Time 6:58 AM CST 4:54 PM CST
Civil Twilight 6:27 AM CST 5:25 PM CST
Nautical Twilight 5:52 AM CST 6:00 PM CST
Astronomical Twilight 5:18 AM CST 6:34 PM CST
Moon 11:37 PM CST 12:48 PM CST
Length of Visible Light 10h 58m
Length of Day
9h 56m
Waning Gibbous, 53% of the Moon is Illuminated
Nov 6
Waning Gibbous
Nov 6
Last Quarter
Nov 13
New
Nov 20
First Quarter
Nov 28
Full

Hourly Weather History & Observations

Time (CST) Temp. Windchill Dew Point Humidity Pressure Visibility Wind Dir Wind Speed Gust Speed Precip Events Conditions
12:12 AM 39.2 °F 33.6 °F 35.6 °F 87% 29.94 in 7.0 mi SSW 8.1 mph - N/A   Overcast
12:31 AM 39.2 °F 34.2 °F 35.6 °F 87% 29.94 in 7.0 mi SSW 6.9 mph - N/A   Overcast
12:51 AM 39.2 °F 33.0 °F 35.6 °F 87% 29.92 in 7.0 mi South 9.2 mph - N/A   Overcast
1:12 AM 39.2 °F 32.0 °F 35.6 °F 87% 29.91 in 5.0 mi SSW 11.5 mph - N/A   Overcast
1:31 AM 39.2 °F 33.6 °F 37.4 °F 93% 29.91 in 4.0 mi South 8.1 mph - N/A Rain Rain
1:51 AM 37.4 °F 30.8 °F 37.4 °F 100% 29.90 in 4.0 mi SSW 9.2 mph - 0.01 in Rain Light Rain
2:12 AM 37.4 °F 30.8 °F 37.4 °F 100% 29.89 in 5.0 mi SSW 9.2 mph 16.1 mph 0.01 in Rain Rain
2:31 AM 37.4 °F 30.8 °F 37.4 °F 100% 29.88 in 7.0 mi SSW 9.2 mph - 0.02 in Rain Light Rain
2:51 AM 37.4 °F 31.4 °F 37.4 °F 100% 29.87 in 5.0 mi SSW 8.1 mph 18.4 mph 0.03 in Rain Light Rain
3:12 AM 37.4 °F 30.3 °F 35.6 °F 93% 29.85 in 7.0 mi South 10.4 mph - 0.03 in Rain Rain
3:31 AM 37.4 °F 29.8 °F 37.4 °F 100% 29.84 in 7.0 mi South 11.5 mph - 0.04 in Rain Rain
3:51 AM 37.4 °F 29.8 °F 37.4 °F 100% 29.82 in 5.0 mi South 11.5 mph - 0.05 in Rain Light Rain
4:12 AM 37.4 °F 29.3 °F 37.4 °F 100% 29.81 in 5.0 mi South 12.7 mph 18.4 mph N/A Rain Rain
4:31 AM 37.4 °F 30.3 °F 37.4 °F 100% 29.80 in 5.0 mi SSW 10.4 mph 18.4 mph N/A   Overcast
4:51 AM 39.2 °F 33.6 °F 37.4 °F 93% 29.79 in 5.0 mi SSW 8.1 mph 17.3 mph N/A Rain Rain
5:11 AM 39.2 °F 34.2 °F 37.4 °F 93% 29.79 in 5.0 mi SSW 6.9 mph - 0.01 in Rain Rain
5:31 AM 39.2 °F 34.2 °F 37.4 °F 93% 29.79 in 7.0 mi SW 6.9 mph - 0.02 in Rain Light Rain
5:51 AM 39.2 °F 35.0 °F 37.4 °F 93% 29.78 in 7.0 mi SW 5.8 mph - 0.02 in Rain Light Rain
6:11 AM 39.2 °F 33.0 °F 37.4 °F 93% 29.77 in 4.0 mi WSW 9.2 mph - N/A   Drizzle
6:32 AM 39.2 °F 34.2 °F 37.4 °F 93% 29.77 in 2.5 mi WSW 6.9 mph - N/A   Light Drizzle
6:51 AM 37.4 °F 33.8 °F 37.4 °F 100% 29.76 in 1.8 mi SW 4.6 mph - N/A   Light Drizzle
7:11 AM 39.2 °F 35.0 °F 37.4 °F 93% 29.77 in 4.0 mi WSW 5.8 mph - N/A   Overcast
7:32 AM 39.2 °F 33.0 °F 37.4 °F 93% 29.77 in 5.0 mi WSW 9.2 mph - N/A   Overcast
7:51 AM 39.2 °F 33.0 °F 37.4 °F 93% 29.77 in 3.0 mi WSW 9.2 mph - N/A   Overcast
8:11 AM 39.2 °F 31.6 °F 37.4 °F 93% 29.78 in 4.0 mi West 12.7 mph 19.6 mph N/A   Overcast
8:32 AM 39.2 °F 30.5 °F 37.4 °F 93% 29.78 in 7.0 mi West 16.1 mph - N/A   Overcast
8:52 AM 39.2 °F 31.2 °F 37.4 °F 93% 29.78 in 10.0 mi WNW 13.8 mph 19.6 mph N/A   Overcast
9:11 AM 39.2 °F 31.6 °F 37.4 °F 93% 29.78 in 10.0 mi WNW 12.7 mph - N/A   Overcast
9:31 AM 41.0 °F 32.8 °F 35.6 °F 81% 29.78 in 10.0 mi NW 16.1 mph - N/A   Overcast
9:52 AM 39.2 °F 30.8 °F 35.6 °F 87% 29.79 in 10.0 mi WNW 15.0 mph - N/A   Overcast
10:11 AM 39.2 °F 30.5 °F 37.4 °F 93% 29.79 in 10.0 mi WNW 16.1 mph - N/A   Overcast
10:31 AM 39.2 °F 29.8 °F 35.6 °F 87% 29.79 in 10.0 mi WNW 18.4 mph 25.3 mph N/A   Overcast
10:52 AM 39.2 °F 30.8 °F 33.8 °F 81% 29.80 in 10.0 mi WNW 15.0 mph 24.2 mph N/A   Overcast
11:11 AM 41.0 °F 32.5 °F 35.6 °F 81% 29.80 in 10.0 mi NW 17.3 mph - N/A   Overcast
11:31 AM 41.0 °F 33.1 °F 35.6 °F 81% 29.79 in 10.0 mi WNW 15.0 mph 24.2 mph N/A   Overcast
11:52 AM 42.8 °F 34.8 °F 35.6 °F 76% 29.79 in 10.0 mi NW 17.3 mph 21.9 mph N/A   Mostly Cloudy
12:11 PM 42.8 °F 35.1 °F 35.6 °F 76% 29.79 in 10.0 mi WNW 16.1 mph 20.7 mph N/A   Mostly Cloudy
12:31 PM 42.8 °F 36.6 °F 35.6 °F 76% 29.79 in 10.0 mi NW 11.5 mph - N/A   Overcast
12:52 PM 42.8 °F 35.4 °F 35.6 °F 76% 29.79 in 10.0 mi WNW 15.0 mph - N/A   Overcast
1:11 PM 42.8 °F 35.8 °F 35.6 °F 76% 29.79 in 10.0 mi WNW 13.8 mph - N/A   Overcast
1:31 PM 39.2 °F 31.6 °F 35.6 °F 87% 29.80 in 3.0 mi WNW 12.7 mph - N/A   Drizzle
1:52 PM 39.2 °F 32.5 °F 37.4 °F 93% 29.80 in 10.0 mi West 10.4 mph - N/A   Overcast
2:11 PM 39.2 °F 33.0 °F 37.4 °F 93% 29.80 in 10.0 mi WNW 9.2 mph - N/A   Overcast
2:31 PM 39.2 °F 32.5 °F 35.6 °F 87% 29.80 in 10.0 mi WNW 10.4 mph - N/A   Drizzle
2:52 PM 39.2 °F 30.8 °F 35.6 °F 87% 29.81 in 7.0 mi WNW 15.0 mph - N/A   Drizzle
3:11 PM 39.2 °F 32.5 °F 37.4 °F 93% 29.82 in 7.0 mi WNW 10.4 mph - N/A Rain Rain
3:31 PM 39.2 °F 33.6 °F 37.4 °F 93% 29.82 in 7.0 mi WNW 8.1 mph - N/A   Drizzle
3:52 PM 39.2 °F 35.9 °F 37.4 °F 93% 29.82 in 7.0 mi West 4.6 mph - N/A Rain Light Rain
4:11 PM 39.2 °F 33.0 °F 37.4 °F 93% 29.83 in 5.0 mi WNW 9.2 mph 17.3 mph N/A   Drizzle
4:31 PM 39.2 °F 29.3 °F 35.6 °F 87% 29.82 in 7.0 mi NNW 20.7 mph 26.5 mph 0.01 in Rain Light Rain
4:52 PM 37.4 °F 29.3 °F 35.6 °F 93% 29.84 in 10.0 mi NNW 12.7 mph 16.1 mph 0.03 in   Overcast
5:11 PM 37.4 °F 28.9 °F 35.6 °F 93% 29.85 in 3.0 mi NNW 13.8 mph 23.0 mph 0.01 in Rain Light Rain
5:31 PM 37.4 °F 29.8 °F 35.6 °F 93% 29.85 in 10.0 mi NNW 11.5 mph - 0.01 in   Drizzle
5:51 PM 37.4 °F 30.8 °F 35.6 °F 93% 29.86 in 10.0 mi NW 9.2 mph - 0.01 in   Overcast
6:11 PM 37.4 °F 28.2 °F 35.6 °F 93% 29.86 in 10.0 mi NW 16.1 mph 20.7 mph N/A   Overcast
6:32 PM 37.4 °F 28.9 °F 35.6 °F 93% 29.87 in 10.0 mi NW 13.8 mph 19.6 mph N/A   Overcast
6:51 PM 37.4 °F 29.8 °F 33.8 °F 87% 29.88 in 10.0 mi NW 11.5 mph - N/A   Overcast
7:11 PM 37.4 °F 29.8 °F 33.8 °F 87% 29.88 in 10.0 mi NW 11.5 mph - N/A   Overcast
7:32 PM 37.4 °F 29.8 °F 33.8 °F 87% 29.89 in 10.0 mi NNW 11.5 mph - N/A   Overcast
7:51 PM 37.4 °F 28.2 °F 33.8 °F 87% 29.89 in 10.0 mi NNW 16.1 mph - N/A   Overcast
8:11 PM 37.4 °F 28.9 °F 32.0 °F 81% 29.90 in 10.0 mi NNW 13.8 mph - N/A   Overcast
8:32 PM 37.4 °F 29.3 °F 32.0 °F 81% 29.90 in 10.0 mi NNW 12.7 mph 18.4 mph N/A   Overcast
8:51 PM 37.4 °F 28.9 °F 32.0 °F 81% 29.91 in 10.0 mi NNW 13.8 mph - N/A   Overcast
9:11 PM 37.4 °F 28.5 °F 32.0 °F 81% 29.91 in 10.0 mi NNW 15.0 mph - N/A   Overcast
9:32 PM 37.4 °F 29.8 °F 32.0 °F 81% 29.92 in 10.0 mi NNW 11.5 mph - N/A   Overcast
9:51 PM 37.4 °F 30.3 °F 32.0 °F 81% 29.93 in 10.0 mi NNW 10.4 mph - N/A   Overcast
10:11 PM 37.4 °F 29.8 °F 32.0 °F 81% 29.93 in 10.0 mi NW 11.5 mph 19.6 mph N/A   Overcast
10:32 PM 37.4 °F 30.3 °F 33.8 °F 87% 29.94 in 10.0 mi NNW 10.4 mph - N/A   Overcast
10:51 PM 37.4 °F 29.8 °F 33.8 °F 87% 29.94 in 10.0 mi NNW 11.5 mph - N/A   Overcast
11:11 PM 37.4 °F 30.8 °F 33.8 °F 87% 29.95 in 10.0 mi NNW 9.2 mph - N/A   Light Drizzle
11:31 PM 37.4 °F 30.3 °F 33.8 °F 87% 29.96 in 10.0 mi NW 10.4 mph - N/A   Overcast
11:51 PM 37.4 °F 30.8 °F 33.8 °F 87% 29.96 in 10.0 mi NNW 9.2 mph - N/A   Overcast